Flag for Guatemala Weather past 2 weeks in Guatemala, Guatemala

Now
64 °F

Passing clouds.


Feels Like: 64 °F
Forecast: 63 / 79 °F
Wind: 9 mph from North

Location: Guatemala Aeropuertola Aurora

Current Time: Jun 30, 2015 at 3:09:04 AM

Latest Report: Jun 30, 2015 at 2:00 AM


Visibility: N/A

Pressure: 30.30 "Hg

Humidity: 94%

Dew point: 63 °F

Location of GuatemalaLocation

Historic Weather in Guatemala — Graph

°F

Guatemala temperature yesterday

Maximum temperature yesterday: 79 °F (at 1:00 PM)
Minimum temperature yesterday: 64 °F (at 5:00 AM)
Average temperature yesterday: 68 °F

Past Weeks' High & Low Weather Summary

 TemperatureHumidityPressure
High81 °F (Jun 15, 1:00 PM)100% (Jun 15, 6:00 AM)30.36 "Hg (Jun 15, 6:00 AM)
Low61 °F (Jun 23, 3:00 AM)37% (Jun 27, 2:00 PM)30.15 "Hg (Jun 15, 3:00 PM)
Average70 °F76%30.28 "Hg
* Reported Jun 15 2:00 AM — Jun 30 2:00 AM, Guatemala, Weather by CustomWeather, © 2015

Note: Actual official high and low records may vary slightly from our data, if they occured in-between our weather recording intervals... More about our weather records

Advertising

Guatemala weather history for previous 24 hours

 ConditionsComfort  
Time TempWeatherWind HumidityBarometerVisibility
2:00 AM
Tue, Jun 30
64 °FPassing clouds.9 mph94%30.30 "HgN/A
1:00 AM64 °FPassing clouds.14 mph94%30.30 "HgN/A
12:00 AM64 °FMostly cloudy.14 mph94%30.33 "HgN/A
11:00 PM
Mon, Jun 29
66 °FMostly cloudy.14 mph88%30.33 "HgN/A
10:00 PM64 °FPassing clouds.14 mph83%30.33 "HgN/A
9:00 PM64 °FPassing clouds.16 mph83%30.30 "HgN/A
8:00 PM64 °FPassing clouds.7 mph83%30.30 "HgN/A
7:00 PM64 °FMostly cloudy.No wind94%30.27 "HgN/A
6:00 PM66 °FDrizzle. Partly sunny.5 mph88%30.27 "HgN/A
5:00 PM64 °FThundershowers. More clouds than sun.5 mph94%30.27 "HgN/A
4:10 PMN/AThundershowers.7 mphN/AN/AN/A
3:40 PMN/AStrong thunderstorms.7 mphN/AN/A1 mi
3:05 PMN/ADrizzle.12 mphN/AN/A4 mi
3:00 PM68 °FPartly sunny.12 mph88%30.27 "HgN/A
2:30 PMN/ABroken clouds.9 mphN/AN/AN/A
2:20 PMN/AHeavy rain.5 mphN/AN/A1 mi
2:00 PM77 °FRain showers. Partly sunny.16 mph61%30.27 "Hg4 mi
1:00 PM79 °FScattered showers. Scattered clouds.18 mph58%30.30 "Hg4 mi
12:00 PM77 °FBroken clouds.14 mph61%30.33 "HgN/A
11:00 AM75 °FBroken clouds.16 mph65%30.33 "HgN/A
10:00 AM72 °FPartly sunny.12 mph73%30.36 "HgN/A
9:00 AM72 °FPartly sunny.14 mph69%30.33 "HgN/A
8:00 AM68 °FPartly sunny.14 mph83%30.33 "HgN/A
7:00 AM66 °FPartly sunny.12 mph88%30.30 "HgN/A
6:00 AM64 °FBroken clouds.9 mph88%30.27 "HgN/A
5:00 AM64 °FPassing clouds.12 mph94%30.27 "HgN/A
4:00 AM66 °FPassing clouds.14 mph88%30.27 "HgN/A
3:00 AM66 °FPassing clouds.16 mph88%30.27 "HgN/A
Weather by CustomWeather, © 2015

See weather overviewHow to use our weather pages